Weather History for Greenwood, MS

Change the Weather History Date:

Thursday, November 22, 2012

  Actual Average Record
Temperature  
Mean Temperature 55 °F 52 °F  
Max Temperature 72 °F 64 °F 81 °F (2010)
Min Temperature 37 °F 41 °F 23 °F (1964)
Degree Days  
Heating Degree Days 10 13  
Month to date heating degree days 274 221  
Since 1 July heating degree days 444 352  
Cooling Degree Days 0 0  
Month to date cooling degree days 7 14  
Year to date cooling degree days 2241 2156  
Growing Degree Days 4 (Base 50)    
Moisture  
Dew Point 43 °F    
Average Humidity 68    
Maximum Humidity 100    
Minimum Humidity 35    
Precipitation  
Precipitation 0.00 in 0.17 in 1.93 in (1979)
Month to date precipitation 0.99 3.10  
Year to date precipitation 36.37 44.70  
Sea Level Pressure  
Sea Level Pressure 30.19 in    
Wind  
Wind Speed 4 mph (ESE)    
Max Wind Speed 12 mph    
Max Gust Speed 15 mph    
Visibility 7 miles    
Events      
T = Trace of Precipitation, MM = Missing Value Source: NWS Daily Summary

Daily Weather History Graph

Daily Weather History Graph

Search for Another Location

Airport:

Trip Planner

Search our weather history database for the weather conditions in past years. The results will help you decide how hot, cold, wet, or windy it might be!

Date:

Astronomy

Nov. 22, 2012 Rise Set
Actual Time 6:38 AM CST 4:54 PM CST
Civil Twilight 6:12 AM CST 5:20 PM CST
Nautical Twilight 5:41 AM CST 5:51 PM CST
Astronomical Twilight 5:11 AM CST 6:21 PM CST
Moon 1:26 PM CST (11/22) 1:13 AM CST (11/22)
Length of Visible Light 11h 08m
Length of Day
10h 15m
Waxing Gibbous, 71% of the Moon is Illuminated
Nov 22
Waxing Gibbous
Nov 28
Full
Dec 6
Last Quarter
Dec 13
New
Dec 19
First Quarter

Hourly Weather History & Observations

Time (CST) Temp. Windchill Dew Point Humidity Pressure Visibility Wind Dir Wind Speed Gust Speed Precip Events Conditions
12:28 AM 42.8 °F 40.1 °F 42.8 °F 100% 30.20 in 2.5 mi NE 4.6 mph - N/A   Clear
12:35 AM 42.8 °F 40.1 °F 42.8 °F 100% 30.20 in 4.0 mi NE 4.6 mph - N/A   Clear
12:45 AM 41.0 °F 39.0 °F 41.0 °F 100% 30.19 in 1.8 mi NE 3.5 mph - N/A   Clear
12:53 AM 43.0 °F - 42.1 °F 97% 30.19 in 2.0 mi Calm Calm - N/A   Clear
1:24 AM 39.2 °F - 39.2 °F 100% 30.20 in 6.0 mi Calm Calm - N/A   Clear
1:53 AM 42.1 °F 40.2 °F 41.0 °F 96% 30.19 in 5.0 mi NE 3.5 mph - N/A   Clear
2:32 AM 37.4 °F 33.8 °F 37.4 °F 100% 30.19 in 1.8 mi NE 4.6 mph - N/A   Clear
2:42 AM 37.4 °F 33.8 °F 37.4 °F 100% 30.19 in 3.0 mi ENE 4.6 mph - N/A   Clear
2:53 AM 41.0 °F 39.0 °F 39.9 °F 96% 30.20 in 4.0 mi NE 3.5 mph - N/A   Clear
3:53 AM 39.0 °F - 37.9 °F 96% 30.20 in 4.0 mi Calm Calm - N/A   Clear
4:53 AM 39.9 °F 36.7 °F 39.0 °F 97% 30.20 in 4.0 mi ENE 4.6 mph - N/A   Clear
5:53 AM 39.0 °F 36.8 °F 37.9 °F 96% 30.21 in 5.0 mi ENE 3.5 mph - N/A   Clear
6:53 AM 39.9 °F 37.8 °F 39.0 °F 97% 30.22 in 4.0 mi NE 3.5 mph - N/A   Clear
7:53 AM 48.9 °F - 46.0 °F 90% 30.23 in 7.0 mi ENE 3.5 mph - N/A   Clear
8:53 AM 55.0 °F - 48.0 °F 77% 30.25 in 8.0 mi Calm Calm - N/A   Clear
9:53 AM 63.0 °F - 50.0 °F 63% 30.25 in 10.0 mi South 6.9 mph - N/A   Clear
10:53 AM 66.9 °F - 50.0 °F 54% 30.24 in 10.0 mi SSW 6.9 mph - N/A   Clear
11:53 AM 69.1 °F - 48.9 °F 49% 30.22 in 10.0 mi South 9.2 mph - N/A   Clear
12:53 PM 71.1 °F - 46.9 °F 42% 30.19 in 10.0 mi SSW 9.2 mph - N/A   Clear
1:53 PM 71.1 °F - 45.0 °F 39% 30.16 in 10.0 mi South 6.9 mph - N/A   Clear
2:53 PM 72.0 °F - 42.1 °F 34% 30.14 in 10.0 mi SSW 9.2 mph - N/A   Clear
3:53 PM 69.1 °F - 43.0 °F 39% 30.14 in 10.0 mi SW 4.6 mph - N/A   Clear
4:53 PM 62.1 °F - 44.1 °F 52% 30.14 in 10.0 mi Calm Calm - N/A   Clear
5:53 PM 57.0 °F - 46.0 °F 67% 30.15 in 10.0 mi Calm Calm - N/A   Clear
6:53 PM 52.0 °F - 45.0 °F 77% 30.16 in 10.0 mi Calm Calm - N/A   Clear
7:53 PM 50.0 °F - 45.0 °F 83% 30.16 in 10.0 mi Calm Calm - N/A   Clear
8:53 PM 51.1 °F - 45.0 °F 80% 30.16 in 10.0 mi Calm Calm - N/A   Clear
9:53 PM 51.1 °F - 46.0 °F 83% 30.16 in 10.0 mi South 3.5 mph - N/A   Clear
10:53 PM 53.1 °F - 45.0 °F 74% 30.15 in 10.0 mi South 5.8 mph - N/A   Clear
11:53 PM 50.0 °F - 44.1 °F 80% 30.16 in 10.0 mi Calm Calm - N/A   Clear